• In India
  • List of Countries
  • For 7 days
  • Water Temperature
  • Satellite Maps
  • Weather Map
  • Weather Widgets
  • user-avatar
    Login

    Hourly Weather Jędrzejów

    Today, 25 November, Saturday

    Time Temperature Precipitation Wind Pressure Humidity
    00:00 +7°C° 0 mm 3 mps 739 mmHg 80%
    01:00 +5°C° 0 mm 3 mps 739 mmHg 80%
    02:00 +5°C° 0 mm 3 mps 739 mmHg 81%
    03:00 +6°C° 0 mm 2 mps 738 mmHg 81%
    04:00 +6°C° 0 mm 2 mps 738 mmHg 82%
    05:00 +6°C° 0 mm 2 mps 738 mmHg 83%
    06:00 +5°C° 0 mm 2 mps 738 mmHg 85%
    07:00 +5°C° 0 mm 2 mps 737 mmHg 86%
    08:00 +6°C° 0 mm 2 mps 737 mmHg 82%
    09:00 +7°C° 0 mm 3 mps 736 mmHg 78%
    10:00 +8°C° 0 mm 3 mps 736 mmHg 74%
    11:00 +8°C° 0 mm 4 mps 735 mmHg 71%
    12:00 +10°C° 0 mm 4 mps 735 mmHg 67%
    13:00 +10°C° 0 mm 5 mps 734 mmHg 64%
    14:00 +9°C° 0 mm 5 mps 734 mmHg 67%
    15:00 +8°C° 0 mm 4 mps 734 mmHg 70%
    16:00 +7°C° 0 mm 4 mps 733 mmHg 73%
    17:00 +7°C° 0.1 mm 4 mps 733 mmHg 74%
    18:00 +7°C° 0.1 mm 4 mps 733 mmHg 76%
    19:00 +7°C° 0.1 mm 4 mps 733 mmHg 78%
    20:00 +7°C° 0.4 mm 4 mps 733 mmHg 80%
    21:00 +7°C° 0.4 mm 4 mps 733 mmHg 82%
    22:00 +7°C° 0.4 mm 4 mps 733 mmHg 84%
    23:00 +7°C° 0.1 mm 4 mps 734 mmHg 85%

    Tomorrow, 26 November, Sunday

    Time Temperature Precipitation Wind Pressure Humidity
    00:00 +6°C° 0.1 mm 4 mps 734 mmHg 85%
    01:00 +6°C° 0.1 mm 4 mps 735 mmHg 86%
    02:00 +5°C° 0 mm 4 mps 735 mmHg 86%
    03:00 +5°C° 0 mm 4 mps 736 mmHg 85%
    04:00 +4°C° 0 mm 4 mps 736 mmHg 84%
    05:00 +4°C° 0.1 mm 4 mps 737 mmHg 84%
    06:00 +4°C° 0.1 mm 3 mps 737 mmHg 83%
    07:00 +4°C° 0.1 mm 3 mps 738 mmHg 83%
    08:00 +4°C° 0.3 mm 3 mps 738 mmHg 83%
    09:00 +4°C° 0.3 mm 3 mps 739 mmHg 83%
    10:00 +4°C° 0.3 mm 3 mps 740 mmHg 83%
    11:00 +4°C° 0.4 mm 3 mps 740 mmHg 82%
    12:00 +4°C° 0.4 mm 4 mps 740 mmHg 81%
    13:00 +4°C° 0.4 mm 4 mps 740 mmHg 80%
    14:00 +3°C° 0.2 mm 4 mps 741 mmHg 81%
    15:00 +3°C° 0.2 mm 4 mps 741 mmHg 81%
    16:00 +3°C° 0.2 mm 3 mps 741 mmHg 82%
    17:00 +2°C° 0 mm 3 mps 741 mmHg 83%
    18:00 +2°C° 0 mm 3 mps 742 mmHg 84%
    19:00 +2°C° 0 mm 3 mps 742 mmHg 85%
    20:00 +1°C° 0 mm 3 mps 742 mmHg 85%
    21:00 +1°C° 0 mm 3 mps 742 mmHg 85%
    22:00 +1°C° 0 mm 3 mps 743 mmHg 85%
    23:00 0°C° 0 mm 3 mps 743 mmHg 86%

    Day after tomorrow, 27 November, Monday

    Time Temperature Precipitation Wind Pressure Humidity
    00:00 0°C° 0 mm 3 mps 743 mmHg 87%
    01:00 -1°C° 0 mm 3 mps 743 mmHg 88%
    02:00 -1°C° 0 mm 3 mps 743 mmHg 89%
    03:00 -1°C° 0 mm 3 mps 743 mmHg 89%
    04:00 -1°C° 0 mm 3 mps 743 mmHg 90%
    05:00 -1°C° 0 mm 3 mps 743 mmHg 89%
    06:00 -1°C° 0 mm 3 mps 743 mmHg 89%
    07:00 -1°C° 0 mm 3 mps 744 mmHg 88%
    08:00 -1°C° 0 mm 3 mps 744 mmHg 85%
    09:00 -1°C° 0 mm 4 mps 744 mmHg 81%
    10:00 0°C° 0 mm 4 mps 744 mmHg 78%
    11:00 0°C° 0 mm 4 mps 744 mmHg 76%
    12:00 +1°C° 0 mm 4 mps 744 mmHg 75%
    13:00 +1°C° 0 mm 4 mps 744 mmHg 73%
    14:00 +1°C° 0 mm 3 mps 744 mmHg 75%
    15:00 +1°C° 0 mm 3 mps 743 mmHg 77%
    16:00 +2°C° 0 mm 2 mps 743 mmHg 79%
    17:00 +2°C° 0 mm 2 mps 743 mmHg 80%
    18:00 +1°C° 0 mm 2 mps 744 mmHg 81%
    19:00 +2°C° 0 mm 1 mps 744 mmHg 83%
    20:00 +2°C° 0 mm 1 mps 743 mmHg 83%
    21:00 +1°C° 0 mm 2 mps 743 mmHg 84%
    22:00 -1°C° 0 mm 2 mps 743 mmHg 85%
    23:00 -1°C° 0 mm 2 mps 743 mmHg 85%

    28 November, Tuesday

    Time Temperature Precipitation Wind Pressure Humidity
    00:00 -1°C° 0 mm 2 mps 743 mmHg 85%
    01:00 -1°C° 0 mm 2 mps 742 mmHg 86%
    02:00 -1°C° 0 mm 2 mps 742 mmHg 85%
    03:00 -2°C° 0 mm 2 mps 742 mmHg 85%
    04:00 -2°C° 0 mm 2 mps 741 mmHg 85%
    05:00 -2°C° 0 mm 3 mps 741 mmHg 84%
    06:00 -2°C° 0 mm 3 mps 741 mmHg 83%
    07:00 -2°C° 0 mm 3 mps 740 mmHg 81%
    08:00 -1°C° 0 mm 3 mps 740 mmHg 76%
    09:00 -1°C° 0 mm 4 mps 740 mmHg 71%
    10:00 0°C° 0 mm 4 mps 740 mmHg 65%
    11:00 0°C° 0 mm 4 mps 739 mmHg 62%
    12:00 +1°C° 0 mm 4 mps 738 mmHg 60%
    13:00 +3°C° 0 mm 4 mps 738 mmHg 57%
    14:00 +1°C° 0 mm 4 mps 737 mmHg 63%
    15:00 +1°C° 0 mm 3 mps 737 mmHg 68%
    16:00 0°C° 0 mm 3 mps 737 mmHg 74%
    17:00 0°C° 0 mm 3 mps 736 mmHg 76%
    18:00 -1°C° 0 mm 3 mps 736 mmHg 78%
    19:00 -1°C° 0 mm 3 mps 736 mmHg 80%
    20:00 -1°C° 0 mm 3 mps 736 mmHg 79%
    21:00 -1°C° 0 mm 3 mps 735 mmHg 79%
    22:00 -1°C° 0 mm 2 mps 735 mmHg 78%
    23:00 -1°C° 0 mm 2 mps 735 mmHg 77%

    29 November, Wednesday

    Time Temperature Precipitation Wind Pressure Humidity
    00:00 -1°C° 0 mm 2 mps 734 mmHg 76%
    01:00 -1°C° 0 mm 2 mps 734 mmHg 75%
    02:00 -1°C° 0 mm 2 mps 734 mmHg 73%
    03:00 -1°C° 0 mm 2 mps 733 mmHg 72%
    04:00 -1°C° 0 mm 2 mps 733 mmHg 70%
    05:00 -1°C° 0 mm 2 mps 733 mmHg 70%
    06:00 -1°C° 0 mm 2 mps 733 mmHg 69%
    07:00 -1°C° 0 mm 2 mps 732 mmHg 68%
    08:00 +1°C° 0 mm 2 mps 732 mmHg 65%
    09:00 +1°C° 0 mm 2 mps 732 mmHg 61%
    10:00 +2°C° 0 mm 2 mps 732 mmHg 58%
    11:00 +2°C° 0 mm 3 mps 732 mmHg 56%
    12:00 +2°C° 0 mm 3 mps 732 mmHg 54%
    13:00 +3°C° 0 mm 3 mps 731 mmHg 52%
    14:00 +2°C° 0 mm 3 mps 731 mmHg 56%
    15:00 +1°C° 0 mm 3 mps 731 mmHg 59%
    16:00 +1°C° 0 mm 3 mps 731 mmHg 63%
    17:00 0°C° 0 mm 3 mps 732 mmHg 66%
    18:00 0°C° 0 mm 3 mps 732 mmHg 69%
    19:00 -1°C° 0 mm 3 mps 732 mmHg 73%
    20:00 -1°C° 0 mm 3 mps 732 mmHg 74%
    21:00 -1°C° 0 mm 3 mps 732 mmHg 75%
    22:00 -1°C° 0 mm 3 mps 733 mmHg 75%
    23:00 -1°C° 0.1 mm 3 mps 732 mmHg 76%

    30 November, Thursday

    Time Temperature Precipitation Wind Pressure Humidity
    00:00 -1°C° 0.1 mm 2 mps 732 mmHg 77%
    01:00 -1°C° 0.1 mm 2 mps 732 mmHg 78%
    02:00 +1°C° 0.6 mm 2 mps 732 mmHg 81%
    03:00 +1°C° 0.6 mm 2 mps 731 mmHg 84%
    04:00 +1°C° 0.6 mm 2 mps 731 mmHg 87%
    05:00 +1°C° 0.4 mm 2 mps 731 mmHg 88%
    06:00 0°C° 0.4 mm 3 mps 730 mmHg 89%
    07:00 0°C° 0.4 mm 3 mps 730 mmHg 90%
    08:00 0°C° 0.5 mm 3 mps 730 mmHg 88%
    09:00 +1°C° 0.5 mm 3 mps 729 mmHg 86%
    10:00 +1°C° 0.5 mm 3 mps 729 mmHg 84%
    11:00 +1°C° 0.9 mm 3 mps 728 mmHg 87%
    12:00 +1°C° 0.9 mm 3 mps 728 mmHg 90%
    13:00 +2°C° 0.9 mm 2 mps 728 mmHg 92%
    14:00 +2°C° 0.1 mm 2 mps 728 mmHg 93%
    15:00 0°C° 0.1 mm 3 mps 728 mmHg 94%
    16:00 0°C° 0.1 mm 3 mps 728 mmHg 95%
    17:00 0°C° 0 mm 3 mps 728 mmHg 95%
    18:00 0°C° 0 mm 3 mps 729 mmHg 94%
    19:00 0°C° 0 mm 3 mps 729 mmHg 94%
    20:00 -1°C° 0 mm 3 mps 730 mmHg 94%
    21:00 -1°C° 0 mm 3 mps 730 mmHg 94%
    22:00 -1°C° 0 mm 2 mps 730 mmHg 94%
    23:00 -2°C° 0 mm 2 mps 731 mmHg 94%
    Show more